Starlink 30275

operational
NORAD ID: 57667 Int'l Des: 2023-124 Owner: SPXS Country: US Constellation: starlink
LEOCIRCULAR

About Starlink 30275

Description loading...

Live Position

Loading 3D Globe...

Upcoming Passes

Altitude History

Altitude vs Time

uPlot chart will show altitude changes over time

Two-Line Element Set

1 57667U 23124E 26035.19790416 .00000019 00000-0 12777-4 0 9994
2 57667 53.1626 2.6382 0001144 105.1037 255.0091 15.30188482138435
Epoch: Feb 4, 2026 • Age: 17 hours

Current Status

Altitude 475.5 km
Velocity 7.63 km/s
Sub-Earth Point 10.40°N, 98.67°W
Launch Date Aug 22, 2023
Age 2.4 years
Type internet

Technical Details

Classification Payload
Mass 730.00 kg
Dry Mass 700.00 kg
Total Mass 730.00 kg
Length 0.30 m
Diameter 4.10 m
Span 29.00 m
Shape Box + pan
Manufacturer SPXS
Bus Type Starlink V2M
Phase Status In Orbit
Owner/State SPXS/US

Large Constellations

Loading constellations...